sat.trackr.live / text

‹ back to catalog

UNKNOWN

NORAD 81824

UNKNOWN UNKNOWN UNKNOWN

§ Identity

Operator
Country
Launch date
Launch site
Launch vehicle
Mass (kg)
RCS (m²)

External: N2YO · Heavens-Above

§ Orbital elements

Epoch: 2026-05-23T13:55:23.642400Z

Period
100.20 min
Inclination
65.8411°
Eccentricity
0.0048022
Mean motion
14.37085913 rev/d
Perigee alt
733.8 km
Apogee alt
802.5 km
Semi-major
7,146.3 km
B*
8.7977e-4
RAAN
254.7468°
Arg perigee
257.8487°
Mean anomaly
101.7225°
Rev number
64,783

§ Raw data

UNKNOWN1 81824U          26143.58013475  .00002559  00000+0  87977-3 0  99932 81824  65.8411 254.7468 0048022 257.8487 101.7225 14.37085913647830

JSON: /api/v1/satellites/81824 · /tle

For live sub-satellite position, see the globe view (requires WebGL).

§ Visibility from observer

Set your observer location to see the next 7 days of passes ≥ 10°. The values pass through the URL so the page stays shareable.

No JS? Fill the form by hand. The geolocation button needs JavaScript.